Flag for Germany Weather past 2 weeks in Laatzen, Lower Saxony, Germany

Now
49 °F

Scattered clouds.


Feels Like: 46 °F
Forecast: 44 / 68 °F
Wind: 7 mph from West

Location: Hannover

Current Time: May 30, 2015 at 8:53:03 AM

Latest Report: May 30, 2015 at 8:00 AM


Visibility: 22 mi

Pressure: 29.81 "Hg

Humidity: 78%

Dew point: 42 °F

Location of LaatzenLocation

Historic Weather in Laatzen — Graph

°F

Laatzen temperature yesterday

Maximum temperature yesterday: 64 °F (at 6:00 PM)
Minimum temperature yesterday: 41 °F (at 5:00 AM)
Average temperature yesterday: 55 °F

Past Weeks' High & Low Weather Summary

 TemperatureHumidityPressure
High67 °F (May 18, 4:00 PM)98% (May 21, 4:00 AM)30.32 "Hg (May 21, 4:00 AM)
Low37 °F (May 24, 6:00 AM)42% (May 18, 4:00 PM)29.60 "Hg (May 18, 9:00 PM)
Average53 °F69%30.03 "Hg
* Reported May 15 8:00 AM — May 30 8:00 AM, Laatzen, Weather by CustomWeather, © 2015

Note: Actual official high and low records may vary slightly from our data, if they occured in-between our weather recording intervals... More about our weather records

Advertising

Laatzen weather history for previous 24 hours

 ConditionsComfort  
Time TempWeatherWind HumidityBarometerVisibility
8:00 AM
Sat, May 30
49 °FScattered clouds.7 mph78%29.81 "Hg22 mi
7:00 AM47 °FPassing clouds.5 mph85%29.80 "Hg12 mi
6:00 AM48 °FScattered clouds.5 mph87%29.78 "Hg12 mi
4:00 AM47 °FPassing clouds.5 mph90%29.74 "Hg16 mi
3:00 AM48 °FOvercast.5 mph89%29.72 "Hg12 mi
2:00 AM48 °FLight rain. Overcast.6 mph89%29.73 "Hg12 mi
1:00 AM50 °FLight rain. Overcast.7 mph84%29.74 "Hg11 mi
12:00 AM58 °FOvercast.5 mph55%29.70 "Hg19 mi
10:00 PM
Fri, May 29
59 °FOvercast.3 mph57%29.70 "Hg25 mi
9:00 PM60 °FOvercast.3 mph54%29.70 "Hg25 mi
8:00 PM61 °FOvercast.5 mph49%29.70 "Hg25 mi
7:00 PM62 °FPartly sunny.7 mph47%29.71 "Hg28 mi
6:00 PM64 °FPartly sunny.5 mph47%29.72 "Hg25 mi
4:00 PM62 °FOvercast.7 mph60%29.74 "Hg12 mi
3:00 PM63 °FOvercast.7 mph55%29.77 "Hg12 mi
2:00 PM62 °FOvercast.6 mph54%29.80 "Hg19 mi
1:00 PM60 °FOvercast.6 mph54%29.83 "Hg19 mi
12:00 PM59 °FOvercast.6 mph54%29.85 "Hg19 mi
10:00 AM57 °FOvercast.5 mph62%29.89 "Hg19 mi
9:00 AM54 °FOvercast.6 mph71%29.91 "Hg19 mi
8:00 AM51 °FOvercast.5 mph76%29.91 "Hg19 mi
Weather by CustomWeather, © 2015

See weather overviewHow to use our weather pages